Location: ??
(35.5052°N, 139.7262°E)
Time: 02:16:55
(UTC+00:00)

COSMOS 2251 DEB - Pass Details

Date: 01 February 2022
Orbit: 735 x 768 km, 74.0° (Epoch: 25 May)

Event Time Altitude Azimuth Distance (km) Brightness Sun altitude
Rises 09:10:51 0° 349° (N) 3,200 ? -13.0°
Reaches altitude 10° 09:13:19 10° 356° (N) 2,277 ? -13.5°
Maximum altitude 09:18:14 44° 69° (ENE) 1,044 ? -14.5°
Drops below altitude 10° 09:23:10 10° 141° (SE) 2,285 ? -15.5°
Sets 09:25:38 0° 147° (SSE) 3,212 ? -16.0°
